Location: Waco, TX
(31.5480°N, 97.1670°W)
Time: 04:20:42
(UTC-06:00)

ISS - All Passes

Search period start: 21 November 2017 00:00
Search period end: 01 December 2017 00:00
Orbit: 402 x 407 km, 51.6° (Epoch: 21 November)

Date Brightness Start Highest point End Pass type
(mag) Time Alt. Az. Time Alt. Az. Time Alt. Az.
21 Nov - 03:38:17 10° N 03:40:29 17° NE 03:42:40 10° ENE night (unlit)
21 Nov - 05:14:01 10° WNW 05:17:02 36° SW 05:20:03 10° SSE visible
21 Nov - 20:13:31 10° SW 20:16:46 73° SE 20:20:02 10° NE night (unlit)
21 Nov - 21:52:34 10° NW 21:53:35 11° NNW 21:54:35 10° NNW night (unlit)
22 Nov - 04:21:35 10° NW 04:24:51 89° SSW 04:28:05 10° SE visible
22 Nov - 19:21:41 10° SSW 19:24:35 30° SE 19:27:30 10° ENE visible
22 Nov - 20:58:39 10° W 21:01:05 19° NW 21:03:31 10° NNE night (unlit)
23 Nov - 03:29:28 10° NNW 03:32:33 39° NE 03:35:37 10° ESE night (unlit)
23 Nov - 05:07:15 10° W 05:08:43 12° SW 05:10:10 10° SSW visible
23 Nov - 18:30:41 10° SSE 18:32:27 14° SE 18:34:14 10° E visible
23 Nov - 20:05:38 10° WSW 20:08:40 35° NW 20:11:43 10° NNE visible
24 Nov - 02:37:37 10° NNW 02:40:08 20° NE 02:42:39 10° E night (unlit)
24 Nov - 04:13:47 10° WNW 04:16:36 27° SW 04:19:24 10° S night (unlit)
24 Nov - 19:13:04 10° SW 19:16:20 82° NW 19:19:36 10° NE visible
25 Nov - 01:46:21 10° N 01:47:37 12° NNE 01:48:53 10° NE night (unlit)
25 Nov - 03:21:09 10° NW 03:24:23 65° SW 03:27:36 10° SE night (unlit)
25 Nov - 18:20:59 10° SSW 18:24:04 40° SE 18:27:10 10° ENE visible
25 Nov - 19:58:36 10° WNW 20:00:41 16° NW 20:02:45 10° N visible
26 Nov - 02:28:53 10° NW 02:32:05 52° NE 02:35:15 10° ESE night (unlit)
26 Nov - 17:29:33 10° S 17:31:53 18° SE 17:34:13 10° E daylight
26 Nov - 19:05:18 10° W 19:08:11 28° NW 19:11:04 10° NNE visible
27 Nov - 01:36:54 10° NNW 01:39:40 25° NE 01:42:25 10° E night (unlit)
27 Nov - 03:13:30 10° WNW 03:16:01 21° SW 03:18:31 10° S night (unlit)
27 Nov - 18:12:33 10° SW 18:15:47 60° NW 18:19:01 10° NE visible
28 Nov - 00:45:19 10° N 00:47:09 14° NNE 00:48:59 10° ENE night (unlit)
28 Nov - 02:20:39 10° WNW 02:23:48 47° SW 02:26:56 10° SSE night (unlit)
28 Nov - 17:20:15 10° SSW 17:23:27 55° SE 17:26:40 10° NE daylight
28 Nov - 18:58:32 10° WNW 19:00:10 13° NNW 19:01:47 10° N visible
29 Nov - 01:28:14 10° NW 01:31:29 70° NE 01:34:43 10° SE night (unlit)
29 Nov - 16:28:31 10° S 16:31:12 24° SE 16:33:54 10° ENE daylight
29 Nov - 18:04:56 10° W 18:07:36 23° NW 18:10:17 10° NNE visible
30 Nov - 00:36:07 10° NNW 00:39:05 31° NE 00:42:01 10° ESE night (unlit)
30 Nov - 02:13:15 10° W 02:15:19 16° SW 02:17:23 10° SSW night (unlit)
30 Nov - 15:38:07 10° SE 15:39:01 11° SE 15:39:55 10° ESE daylight
30 Nov - 17:11:59 10° WSW 17:15:07 45° NW 17:18:18 10° NNE daylight
30 Nov - 23:44:19 10° N 23:46:33 17° NE 23:48:47 10° E night (unlit)
